Find Starlink 2525

NORAD ID: 48482 Int'l Des: 2021-040 Owner: SPXS Country: US Constellation: starlink operational
LEOCIRCULAR

現在のビュー

3D地球を読み込み中...

Starlink 2525について

説明を読み込み中...

次回通過

Passes for default location (London). Set your location on the main map for personalized predictions.

高度履歴

Loading altitude history...

軌道要素

1 48482U 21040BG 26146.45004796 .00003002 00000-0 10845-3 0 9993
2 48482 53.1594 192.2361 0001129 80.3214 279.7915 15.31707801278370
Epoch: May 26, 2026 • Age: 12 hours

現在のステータス

高度 488.4 km
速度 7.62 km/s
衛星直下点 -49.31°S, 157.37°W
打ち上げ日 May 9, 2021
運用期間 5 years
タイプ internet

技術仕様

分類 Payload
質量 260.00 kg
乾燥質量 248.00 kg
総質量 260.00 kg
長さ 0.20 m
直径 2.80 m
スパン 9.00 m
形状 Box + pan
製造者 SPXS
バスタイプ Starlink
フェーズステータス In Orbit
所有者/国 SPXS/US

Most Searched